User: anonymous   Login
Location: Bijele Vode
(45.2833°N, 16.2000°E)
Time: 21:56:18
(UTC+00:00)
Language:

CUBEBUG 2 - Orbit

View from above orbital plane
View from above orbital plane
View from above satellite
View from above satellite

Ground track
Ground track

The orbit data is extracted from the following two-line orbital elements,

1 39440U 13066AA  21335.45621219  .00000831  00000-0  12045-3 0  9997
2 39440  97.6998 296.7674 0080874  54.3357 306.5348 14.76405922431068
Epoch (UTC): 01 December 2021 10:56:56
Eccentricity: 0.0080874
inclination: 97.6998°
perigee height: 584 km
apogee height: 697 km
right ascension of ascending node: 296.7674°
argument of perigee: 54.3357°
revolutions per day: 14.76405922
mean anomaly at epoch: 306.5348°
orbit number at epoch: 43106

The dashed part of the orbit path shows where the satellite is in the earth's shadow,  

DLR